GOKTURK 2

Last updated on Mon Sep 15 2025 00:02:30 GMT+0000 (Coordinated Universal Time)

1 39030U 12073A 25257.31829788 .00000395 00000+0 65555-4 0 9991 2 39030 97.7013 103.3287 0001814 106.0692 254.0718 14.75107943683832
UTC large
Height (km)
Speed (km/s)
/
Latitude / Longitude
Inclination (degrees)
Orbital Period (minutes)
Azimuth
Elevation
Range (km)
Doppler Factor

Next 0 passes for location: London (51.5072 / 0.1276)

Sorry there are no passes over London.